This is the latest recevied weather packets stored in our database for station/object WC0AA-WX. If no packets are shown the sender has not sent any weather packets the latest 10 day(s).
| Time | Temp. | Humidity | Pressure | Rain* | Wind** | Luminosity | Snow |
|---|---|---|---|---|---|---|---|
| 1777919143 | 32.22° C | 23% | 1002.3 hPa | 0 mm | - | - | - |
| 1777918542 | 32.22° C | 23% | 1002.4 hPa | 0 mm | - | - | - |
| 1777917340 | 31.67° C | 26% | 1002.6 hPa | 0 mm | - | - | - |
| 1777916740 | 31.67° C | 26% | 1002.6 hPa | 0 mm | - | - | - |
| 1777916139 | 31.67° C | 28% | 1002.6 hPa | 0 mm | - | - | - |
| 1777914336 | 30.56° C | 29% | 1002.8 hPa | 0 mm | - | - | - |
| 1777913735 | 30.56° C | 29% | 1002.9 hPa | 0 mm | - | - | - |
| 1777912533 | 29.44° C | 35% | 1002.8 hPa | 0 mm | - | - | - |
| 1777911331 | 28.33° C | 37% | 1002.9 hPa | 0 mm | - | - | - |
| 1777910129 | 27.78° C | 39% | 1003 hPa | 0 mm | - | - | - |
| 1777909528 | 26.67° C | 39% | 1003 hPa | 0 mm | - | - | - |
| 1777908326 | 25.56° C | 40% | 1003 hPa | 0 mm | - | - | - |
| 1777907725 | 24.44° C | 43% | 1003 hPa | 0 mm | - | - | - |
| 1777907124 | 23.33° C | 46% | 1003 hPa | 0 mm | - | - | - |
| 1777905322 | 21.67° C | 49% | 1003 hPa | 0 mm | - | - | - |
| 1777904120 | 20.56° C | 52% | 1003 hPa | 0 mm | - | - | - |
| 1777903519 | 20° C | 52% | 1003 hPa | 0 mm | - | - | - |
| 1777901115 | 17.22° C | 64% | 1003 hPa | 0 mm | - | - | - |
| 1777900513 | 15.56° C | 73% | 1002.9 hPa | 0 mm | - | - | - |
| 1777895706 | 8.89° C | 87% | 1002.8 hPa | 0 mm | - | - | - |
| 1777895106 | 8.33° C | 88% | 1002.7 hPa | 0 mm | - | - | - |
| 1777894505 | 8.33° C | 86% | 1002.7 hPa | 0 mm | - | - | - |
| 1777893903 | 8.33° C | 87% | 1002.7 hPa | 0 mm | - | - | - |
| 1777893303 | 8.33° C | 86% | 1002.4 hPa | 0 mm | - | - | - |
| 1777892702 | 8.89° C | 85% | 1002.6 hPa | 0 mm | - | - | - |
* Rain latest hour (hover to see other rain measurements)
** Current wind speed in m/s (hover to see current wind gust speed)